• Join FlightAware (Why Join?)
  • Login
  • US Flag 
02:42AM EDT


 

Airport Tracker/Info


-or-


 

Live Flight TrackerFlight Track Log ✈ EJA831 ✈ 21-Jun-2013 ✈ KJFK - CYQB

Flight Track Log - Related Links

Times and Time Zones

All times are in EDT time to prevent confusion due to time zone crossing. See the EJA831 flight status page for this flight to view local times or setup timezone preferences in your user account.

Time Position Orientation Groundspeed Altitude Reporting Facility
EDT Latitude Longitude Course Direction KTS MPH feet Rate Location/Type
12:35PM 40.6000 -73.7500 45° Northeast 218 251 2,600  Level New York TRACON
12:36PM 40.5833 -73.6833 108° East 281 323 6,000 2,580 Climbing New York TRACON
12:39PM 40.7028 -73.5325 44° Northeast 283 326 11,000 1,800 Climbing Boston Center
12:40PM 40.7847 -73.4761 28° Northeast 303 349 11,900 1,860 Climbing Boston Center
12:41PM 41.4824 -73.2790 45° Northeast  Level FlightAware Approximate
12:41PM 40.8767 -73.4556 10° North 316 364 14,800  Level Boston Center
12:42PM 40.9683 -73.4350 10° North 322 371 16,000 600 Climbing Boston Center
12:43PM 41.0644 -73.4119 10° North 344 396 16,100 1,020 Climbing Boston Center
12:44PM 41.1669 -73.3886 10° North 350 403 18,100 1,320 Climbing Boston Center
12:45PM 41.2400 -73.3703 11° North 338 389 18,800 1,080 Climbing Boston Center
12:46PM 41.3486 -73.3442 10° North 338 389 20,300 1,320 Climbing Boston Center
12:47PM 41.4528 -73.3236 North 355 409 21,500 1,080 Climbing Boston Center
12:48PM 41.5453 -73.2278 38° Northeast 362 417 22,500 900 Climbing Boston Center
12:49PM 41.6314 -73.1289 41° Northeast 376 433 23,400 1,320 Climbing Boston Center
12:50PM 41.7336 -73.1272 North 371 427 25,200 1,680 Climbing Boston Center
12:51PM 41.8356 -73.1450 353° North 356 410 26,800 1,800 Climbing Boston Center
12:52PM 41.9314 -73.1600 353° North 350 403 28,800 1,200 Climbing Boston Center
12:53PM 42.0103 -73.1750 352° North 350 403 29,200 960 Climbing Boston Center
12:54PM 42.1144 -73.1928 353° North 350 403 30,800 1,560 Climbing Boston Center
12:55PM 42.2106 -73.1800 North 350 403 32,400 1,440 Climbing Boston Center
12:56PM 42.3003 -73.1475 15° North 344 396 33,700 1,440 Climbing Boston Center
12:57PM 42.3983 -73.1036 18° North 361 415 35,300 1,620 Climbing Boston Center
12:58PM 42.4842 -73.0708 16° North 336 387 37,000 1,500 Climbing Boston Center
12:59PM 42.5656 -73.0433 14° North 313 360 38,400 1,200 Climbing Boston Center
01:00PM 42.6489 -73.0244 North 302 348 39,500 1,080 Climbing Boston Center
01:01PM 42.7242 -72.9883 19° North 292 336 40,600 720 Climbing Boston Center
01:02PM 42.8056 -72.9581 15° North 292 336 41,000 180 Climbing Boston Center
01:03PM 42.8953 -72.9303 13° North 292 336 41,000  Level Boston Center
01:04PM 42.9872 -72.8942 16° North 305 351 41,000  Level Boston Center
01:05PM 43.0833 -72.8608 14° North 332 382 41,000  Level Boston Center
01:06PM 43.1708 -72.8300 14° North 345 397 41,000  Level Boston Center
01:07PM 43.2689 -72.7964 14° North 356 410 41,000  Level Boston Center
01:08PM 43.3650 -72.7600 15° North 356 410 41,000  Level Boston Center
01:09PM 43.4628 -72.7261 14° North 356 410 41,000  Level Boston Center
01:10PM 43.5589 -72.6894 15° North 356 410 41,000  Level Boston Center
01:11PM 43.6569 -72.6525 15° North 356 410 41,000  Level Boston Center
01:12PM 43.7528 -72.6183 14° North 356 410 41,000  Level Boston Center
01:13PM 43.8508 -72.5811 15° North 356 410 41,000  Level Boston Center
01:14PM 43.9528 -72.5411 16° North 343 395 41,000  Level Boston Center
01:15PM 44.0489 -72.5064 15° North 343 395 41,000  Level Boston Center
01:16PM 44.1447 -72.4689 16° North 343 395 41,000  Level Boston Center
01:17PM 44.2425 -72.4342 14° North 348 400 41,000  Level Boston Center
01:18PM 44.3406 -72.3936 16° North 359 413 41,000  Level Boston Center
01:19PM 44.4364 -72.3586 15° North 354 407 41,000  Level Boston Center
01:20PM 44.5364 -72.3178 16° North 359 413 41,000 -300 Level Boston Center
01:21PM 44.6319 -72.2825 15° North 359 413 40,500 -900 Descending Boston Center
01:22PM 44.7217 -72.2472 16° North 352 405 39,300 -1,260 Descending Boston Center
01:23PM 44.8047 -72.2178 14° North 324 373 38,000 -1,800 Descending Boston Center
01:24PM 44.8839 -72.1881 15° North 306 352 35,700 -2,280 Descending Boston Center
01:25PM 44.9650 -72.1586 14° North 295 339 33,500 -2,220 Descending Boston Center
01:26PM 45.0589 -72.1197 16° North 315 362 31,300 -2,280 Descending Boston Center
01:27PM 45.1833 -72.0500 22° Northeast 390 449 28,300 -2,160 Descending Montreal Center
01:28PM 45.2833 -72.0167 13° North 390 449 26,300 -2,280 Descending Montreal Center
01:29PM 45.4000 -71.9667 17° North 380 437 23,800 -2,340 Descending Montreal Center
01:30PM 45.4833 -71.9333 16° North 360 414 21,700 -2,100 Descending Montreal Center
01:31PM 45.5833 -71.9000 13° North 350 403 19,600 -2,100 Descending Montreal Center
01:32PM 45.6833 -71.8333 25° Northeast 340 391 17,600 -2,100 Descending Montreal Center
01:33PM 45.7667 -71.8167 North 340 391 15,500 -2,340 Descending Montreal Center
01:34PM 45.8667 -71.7833 13° North 330 380 13,000 -2,340 Descending Montreal Center
01:35PM 45.9500 -71.7500 16° North 320 368 10,900 -1,860 Descending Montreal Center
01:36PM 46.0333 -71.7167 16° North 300 345 9,300 -1,500 Descending Montreal Center
01:37PM 46.1000 -71.6833 19° North 260 299 8,000 -660 Descending Montreal Center
01:38PM 46.1667 -71.6833 360° North 260 299 8,000  Level Montreal Center
01:39PM 46.2333 -71.6333 27° Northeast 270 311 8,000  Level Montreal Center
01:40PM 46.2833 -71.5667 43° Northeast 260 299 8,000 -60 Level Montreal Center
01:41PM 46.3500 -71.5000 35° Northeast 280 322 7,900  Descending Montreal Center
01:42PM 46.4000 -71.4500 35° Northeast 280 322 8,000  Climbing Montreal Center
01:43PM 46.4667 -71.3667 41° Northeast 290 334 8,000  Level Montreal Center
01:44PM 46.5333 -71.2833 41° Northeast 290 334 8,000 -540 Level Montreal Center
01:45PM 46.6000 -71.2333 27° Northeast 270 311 7,000 -1,260 Descending Montreal Center
01:46PM 46.6667 -71.1500 41° Northeast 240 276 5,500 -1,500 Descending Montreal Center
01:47PM 46.7000 -71.1000 46° Northeast 220 253 4,100 -1,500 Descending Montreal Center
01:48PM 46.7500 -71.0667 25° Northeast 230 265 2,500 -960 Descending Montreal Center
01:49PM 46.7667 -71.1667 284° West 210 242 2,200 -300 Descending Montreal Center
01:50PM 46.7667 -71.2333 270° West 200 230 1,900 -600 Descending Montreal Center
01:51PM 46.7667 -71.3167 270° West 140 161 1,000 -780 Descending Montreal Center
01:52PM 46.7667 -71.3667 270° West 120 138 400 -600 Descending Montreal Center